Location: Brantley
(31.5822°N, 86.2569°W)
Time: 02:28:12
(UTC+00:00)

Courier 1B Rocket - Pass Details

Date: 17 February 2026
Orbit: 920 x 1201 km, 28.2° (Epoch: 7 March)

Event Time Altitude Azimuth Distance (km) Brightness Sun altitude
Rises 22:13:57 0° 203° (SSW) 3,563 8.7 15.2°
Reaches altitude 10° 22:18:09 10° 177° (S) 2,601 7.6 14.4°
Maximum altitude 22:20:53 13° 150° (SSE) 2,378 7.0 13.9°
Drops below altitude 10° 22:23:37 10° 124° (ESE) 2,602 7.0 13.3°
Sets 22:27:49 0° 98° (E) 3,567 7.4 12.5°
